Location: Knowlton
(51.2333°N, 1.2667°E)
Time: 00:52:40
(UTC+00:00)

Daily predictions for brighter satellites

Satellite Brightness Start Highest point End
(mag) Time Altitude Azimuth Time Altitude Azimuth Time Altitude Azimuth
Meteor 1-24 Rocket 3.9 00:02:18 21° SSW 00:06:18 70° WNW 00:11:56 10° N
USA 234 4.0 00:00:05 10° ENE 00:06:27 55° N 00:12:47 10° W
Cosmos 2227 Rocket 2.6 00:05:20 23° S 00:08:33 48° ESE 00:13:59 10° NE
Cosmos 304 Rocket 3.9 00:06:24 21° SW 00:09:32 73° WNW 00:14:19 10° NNE
Cosmos 1892 2.4 00:09:05 34° S 00:10:29 76° E 00:14:00 10° NNE
Cosmos 332 Rocket 4.0 00:09:47 26° S 00:12:26 59° ESE 00:17:16 10° NNE
Cosmos 2181 Rocket 4.1 00:06:49 10° NNW 00:12:57 63° W 00:16:56 22° SSW
Cosmos 1980 4.1 00:08:08 10° NW 00:13:32 47° WSW 00:16:41 24° S
CENTAUR R/B 3.1 00:12:18 22° S 00:15:26 39° ESE 00:21:48 10° NE
GEOS 3 Rocket 3.8 00:13:59 10° NE 00:19:04 53° SE 00:22:03 24° SSW
H-2A R/B 2.0 00:17:25 10° NNE 00:21:43 80° WNW 00:24:02 26° SSW
Cosmos 1538 Rocket 4.1 00:17:49 10° NNW 00:23:03 77° ENE 00:27:12 16° SSE
Cosmos 1503 Rocket 4.3 00:19:44 19° SW 00:23:36 67° WNW 00:28:55 10° NNE
Cosmos 1777 Rocket 4.1 00:21:13 21° SSW 00:24:50 77° WNW 00:30:09 10° NNE
SL-4 R/B 2.8 00:21:38 10° W 00:25:19 32° SSW 00:26:25 28° S
Cosmos 2151 Rocket 4.2 00:22:46 10° NNW 00:26:58 44° W 00:29:10 24° SSW
Cosmos 1174 4.5 00:23:45 10° NW 00:28:34 46° WSW 00:30:27 27° S
Cosmos 2297 Rocket 2.3 00:24:22 18° SW 00:28:39 74° WNW 00:34:20 10° NNE
Cosmos 2074 Rocket 4.0 00:24:31 22° S 00:28:42 88° W 00:34:58 10° N
NOSS 8 (A) 4.3 00:25:51 10° NW 00:28:47 56° SW 00:30:08 30° SSE
Cosmos 2219 3.9 00:27:36 21° SSE 00:30:53 41° ESE 00:36:08 10° NE
Cosmos 2084 Rocket 3.4 00:29:51 25° SSW 00:32:11 68° SE 00:36:18 10° NE
Okean 2 Rocket 3.8 00:29:32 10° NNW 00:33:46 42° W 00:36:03 23° SSW
Cosmos 1455 Rocket 3.4 00:30:05 10° N 00:34:30 61° ENE 00:37:36 19° SSE
ATLAS CENTAUR R/B 4.2 00:37:23 10° NW 00:39:09 13° NNW 00:40:57 10° NNE
Aureole 1 Rocket 3.9 00:38:34 22° SSE 00:40:19 33° ESE 00:44:16 10° NE
Cosmos 1825 2.5 00:42:47 26° SW 00:44:22 46° WNW 00:47:42 10° N
Cosmos 1674 Rocket 4.2 00:41:51 21° SW 00:44:27 47° WNW 00:48:40 10° N
ADEOS II 4.5 00:43:08 10° ENE 00:45:12 12° E 00:47:15 10° ESE
Cosmos 1378 Rocket 4.5 00:43:13 19° SW 00:45:55 39° WNW 00:50:04 10° N
Cosmos 923 Rocket 4.4 00:45:50 10° NNW 00:51:06 62° ENE 00:56:17 10° SE
Cosmos 1025 Rocket 3.0 00:50:34 25° SSW 00:53:06 86° WNW 00:57:27 10° N
Cosmos 2221 Rocket 4.4 00:51:16 20° SW 00:54:03 42° WNW 00:58:18 10° N
BREEZE-M DEB (TANK) 2.8 00:51:25 10° W 00:57:21 40° SSW 00:58:59 20° SSE
Resurs 1-4 Rocket 3.9 00:54:09 10° NE 00:58:21 23° E 01:02:32 10° SE
NOSS 3-2 (A) 3.7 00:56:57 21° S 01:00:13 47° ESE 01:06:07 10° NE
Cosmos 1606 3.5 00:57:42 10° N 01:01:09 43° ENE 01:04:04 13° SE
Nadezhda 3 Rocket 4.2 00:55:39 10° NNW 01:01:48 58° W 01:06:12 19° SSW
Cosmos 2263 Rocket 2.6 00:58:49 20° S 01:02:32 50° ESE 01:07:54 10° NE
CZ-4C R/B 2.8 00:58:26 10° WSW 01:03:09 52° NW 01:09:11 10° NE
Cosmos 1898 Rocket 4.0 01:01:19 19° S 01:04:47 50° ESE 01:09:47 10° NNE
COSMOS 2455 3.9 00:59:49 10° WSW 01:05:31 42° NW 01:11:16 10° NNE
Orbus 7S? 2.8 01:03:23 10° WNW 01:06:03 77° NNE 01:09:34 10° ESE
MOZ.5/SAFIR/RUBIN 5/SL-8 3.9 01:05:48 13° SSE 01:09:53 75° ENE 01:14:32 10° NNW
BlueWalker 3 2.2 01:09:28 10° W 01:13:12 67° N 01:16:57 10° ENE
Helios 1A Rocket 2.7 01:12:04 22° S 01:14:23 65° WSW 01:18:11 10° NNW
Cosmos 1461 4.1 01:14:31 18° SSE 01:16:35 27° ESE 01:19:56 10° ENE
Cosmos 2366 rocket 4.4 01:11:40 14° S 01:17:01 60° E 01:23:08 10° NNE
BREEZE-M DEB (TANK) 3.1 01:22:11 10° W 01:25:56 12° SSE 01:26:16 10° SE
Cosmos 1680 Rocket 3.5 01:28:13 10° NNW 01:33:27 84° WSW 01:38:39 10° SSE
SL-19 R/B 4.0 01:30:26 10° N 01:33:29 52° WNW 01:35:06 22° SW
Cosmos 1818 3.6 01:29:01 10° NW 01:34:29 68° SW 01:39:53 10° SSE
In-Cosmos 22 Rocket 4.3 01:29:58 17° SSW 01:34:30 79° WNW 01:40:22 10° N
Cosmos 2112 Rocket 4.0 01:30:22 10° NNW 01:35:36 87° ENE 01:40:47 10° SSE
SL-16 R/B 2.9 01:31:55 10° NW 01:37:07 37° WSW 01:41:09 15° SSW
SL-16 R/B 3.6 01:33:50 10° SE 01:39:45 46° ENE 01:45:40 10° N
Cosmos 1603 4.2 01:36:20 10° NNW 01:42:06 65° ENE 01:47:47 10° SE
Cosmos 2237 Rocket 4.2 01:42:11 10° W 01:43:26 11° W 01:44:40 10° WSW
Cosmos 1869 3.2 01:40:17 10° NNW 01:43:57 59° W 01:46:41 17° S
Cosmos 1544 Rocket 3.6 01:41:40 10° NNW 01:46:07 69° W 01:49:57 13° S
Cosmos 292 Rocket 4.0 01:43:03 16° SW 01:46:49 62° WNW 01:51:37 10° NNE
SL-8 Rocket 4.0 01:43:18 15° SSW 01:48:31 77° W 01:54:46 10° N
USA 234 3.9 01:42:36 10° E 01:49:02 63° NNE 01:55:29 10° WNW
Cosmos 2082 3.7 01:45:35 15° SSW 01:50:15 83° WNW 01:55:55 10° NNE
IDEFIX/ARIANE 42P 2.7 01:45:14 10° NNE 01:50:31 75° ESE 01:55:13 13° S
Cosmos 2228 3.0 01:47:20 10° NNW 01:51:41 80° W 01:55:50 11° S
Cosmos 1943 3.1 01:46:42 10° NNW 01:52:20 77° WSW 01:57:56 10° SSE
Cosmos 2227 Rocket 3.3 01:47:29 10° WSW 01:52:45 38° NW 01:58:03 10° NNE
CZ-2C R/B 3.7 01:50:09 10° NNE 01:55:32 53° E 02:00:36 10° S
H-2A R/B 4.4 01:54:49 10° NNW 01:56:41 13° NW 01:58:32 10° W
Cosmos 1437 Rocket 3.7 01:53:36 10° SSE 01:57:13 40° E 02:00:47 10° NNE
CZ-2C R/B 2.6 01:52:01 10° SSE 01:57:18 81° WSW 02:02:45 10° NNW
CZ-2D R/B 2.4 01:53:15 10° NNE 01:58:35 64° ESE 02:03:47 10° S
FENGYUN 3A 4.5 01:55:39 10° NNE 02:00:50 46° E 02:06:00 10° S
Cosmos 1975 Rocket 4.0 01:58:43 14° SW 02:02:04 36° WNW 02:06:09 10° N
Cosmos 1727 Rocket 4.1 01:57:12 10° N 02:03:34 89° ENE 02:09:56 10° S
COBE Rocket 4.2 01:59:57 10° N 02:05:02 62° WNW 02:09:38 13° SSW
CENTAUR R/B 3.0 01:59:47 10° WSW 02:05:45 62° NW 02:13:13 10° NE
H-2A R/B 3.3 02:04:26 10° NNE 02:08:27 84° WNW 02:12:02 13° SSW
USA 238 DEB 4.3 02:06:34 10° S 02:12:18 43° ESE 02:18:35 10° NE
USA 238 4.3 02:06:36 10° S 02:12:21 43° ESE 02:18:38 10° NE
Cosmos 2297 Rocket 4.2 02:09:29 10° W 02:13:42 21° NW 02:17:56 10° NNE
Cosmos 2219 4.0 02:09:41 10° WSW 02:15:02 43° NW 02:20:24 10° NNE
NPP 3.7 02:09:38 10° NNE 02:15:03 75° WNW 02:20:16 11° SSW
ASTEX 1 3.7 02:16:43 10° SSE 02:21:33 71° E 02:26:25 10° N
Cosmos 1606 Rocket 3.7 02:17:12 10° N 02:21:40 80° ENE 02:26:05 10° SSE
Aureole 1 Rocket 4.4 02:20:16 10° WSW 02:23:34 28° NW 02:27:36 10° N
Cosmos 1867 4.3 02:18:46 10° SSW 02:23:55 45° ESE 02:29:08 10° NE
Cosmos 921 Rocket 2.9 02:19:40 10° NNW 02:23:56 87° WSW 02:28:08 10° SSE
Cosmos 2227 4.4 02:18:50 11° SSW 02:24:26 77° ESE 02:30:13 10° NNE
ADEOS II 2.3 02:20:29 10° NNE 02:25:46 73° ESE 02:31:00 10° S
Cosmos 494 Rocket 4.0 02:22:07 10° NNW 02:27:21 76° WSW 02:32:35 10° SSE
Cosmos 1536 Rocket 3.8 02:27:09 10° SSW 02:31:31 60° WNW 02:35:55 10° N
Cosmos 1900 4.5 02:28:54 10° SW 02:33:59 85° SE 02:39:06 10° NE
Cosmos 1844 4.4 02:28:45 10° S 02:34:17 50° ESE 02:39:53 10° NE
Cosmos 1606 4.4 02:33:15 10° NW 02:35:30 16° W 02:37:45 10° SW
Cosmos 1238 Rocket 4.4 02:33:30 10° N 02:36:45 31° ENE 02:39:38 10° SE
Cosmos 1726 Rocket 3.7 02:32:48 10° N 02:37:17 86° ENE 02:41:42 10° S
Resurs 1-4 Rocket 2.3 02:33:21 10° N 02:38:34 62° WNW 02:43:46 10° SSW
Cosmos 724 4.3 02:36:38 10° NW 02:42:29 88° SW 02:48:19 10° SE
Cosmos 1937 Rocket 4.3 02:38:39 10° SW 02:43:37 41° WNW 02:48:36 10° NNE
Iridium 4 Rocket 4.0 02:41:45 10° N 02:46:01 52° E 02:50:36 10° SSE
Cosmos 2263 Rocket 3.2 02:41:29 10° WSW 02:46:38 36° NW 02:51:47 10° NNE
NOSS 3-2 (A) 4.1 02:45:40 10° WSW 02:51:01 49° NNW 02:57:30 10° NE
BlueWalker 3 2.1 02:47:50 10° WNW 02:51:36 74° NNE 02:55:20 10° E
Cosmos 1812 2.6 02:48:48 10° N 02:52:24 81° E 02:55:58 10° SSE
Cosmos 1821 Rocket 4.3 02:46:45 10° SSW 02:52:42 53° WNW 02:58:44 10° N
CZ-4C R/B 4.3 02:48:13 10° WNW 02:52:58 28° N 02:58:44 10° NE
Cosmos 1461 3.5 02:50:48 10° WSW 02:54:36 44° NW 02:58:20 10° NNE
USA 267 3.8 02:48:18 10° ENE 02:54:36 48° SE 03:00:52 10° SSW
Cosmos 2058 3.8 02:51:26 10° SSE 02:55:20 47° E 02:59:16 10° NNE
NOSS 3-2 (C) 3.5 02:51:12 10° SW 02:56:37 73° NW 03:03:11 10° NE
BREEZE M DEB (TANK) 4.3 02:42:24 10° W 02:57:19 73° SSW 03:01:28 10° ESE
